Time,TemperatureF,DewpointF,PressureIn,WindDirection,WindDirectionDegrees,WindSpeedMPH,WindSpeedGustMPH,Humidity,HourlyPrecipIn,Conditions,Clouds,dailyrainin,SoftwareType,DateUTC
2013-01-07 00:22:00,33.0,30.0,30.32,North,359,2.0,-999.0,87,-99.99,,,-99.99,,2013-01-07 05:22:00,
2013-01-07 00:33:00,33.0,30.0,30.32,North,359,2.0,-999.0,87,-99.99,,,-99.99,,2013-01-07 05:33:00,
2013-01-07 00:43:00,33.0,30.0,30.32,North,359,2.0,-999.0,87,-99.99,,,-99.99,,2013-01-07 05:43:00,
2013-01-07 00:53:00,32.0,29.0,30.29,ESE,106,2.0,-999.0,88,-99.99,,,-99.99,,2013-01-07 05:53:00,
2013-01-07 01:02:00,32.0,29.0,30.29,ESE,106,2.0,-999.0,88,-99.99,,,-99.99,,2013-01-07 06:02:00,
2013-01-07 01:12:00,32.0,29.0,30.29,ESE,106,2.0,-999.0,88,-99.99,,,-99.99,,2013-01-07 06:12:00,
2013-01-07 01:22:00,32.0,29.0,30.31,East,89,0.0,-999.0,88,-99.99,,,-99.99,,2013-01-07 06:22:00,
2013-01-07 01:32:00,32.0,29.0,30.31,East,89,0.0,-999.0,88,-99.99,,,-99.99,,2013-01-07 06:32:00,
2013-01-07 01:42:00,32.0,29.0,30.31,East,89,0.0,-999.0,88,-99.99,,,-99.99,,2013-01-07 06:42:00,
2013-01-07 01:52:00,31.0,28.0,30.31,ENE,74,1.0,-999.0,89,-99.99,,,-99.99,,2013-01-07 06:52:00,
2013-01-07 02:02:00,31.0,28.0,30.31,ENE,74,1.0,-999.0,89,-99.99,,,-99.99,,2013-01-07 07:02:00,
2013-01-07 02:12:00,31.0,28.0,30.31,ENE,74,1.0,-999.0,89,-99.99,,,-99.99,,2013-01-07 07:12:00,
2013-01-07 02:22:00,31.0,28.0,30.32,NW,314,1.0,-999.0,87,-99.99,,,-99.99,,2013-01-07 07:22:00,
2013-01-07 02:33:00,31.0,28.0,30.32,NW,314,1.0,-999.0,87,-99.99,,,-99.99,,2013-01-07 07:33:00,
2013-01-07 02:43:00,31.0,28.0,30.32,NW,314,1.0,-999.0,87,-99.99,,,-99.99,,2013-01-07 07:43:00,
2013-01-07 02:53:00,30.0,27.0,30.34,NW,306,2.0,-999.0,87,-99.99,,,-99.99,,2013-01-07 07:53:00,
2013-01-07 03:03:00,30.0,27.0,30.34,NW,306,2.0,-999.0,87,-99.99,,,-99.99,,2013-01-07 08:03:00,
2013-01-07 03:12:00,30.0,27.0,30.34,NW,306,2.0,-999.0,87,-99.99,,,-99.99,,2013-01-07 08:12:00,
2013-01-07 03:22:00,30.0,26.0,30.33,East,84,3.0,-999.0,86,-99.99,,,-99.99,,2013-01-07 08:22:00,
2013-01-07 03:32:00,30.0,26.0,30.33,East,84,3.0,-999.0,86,-99.99,,,-99.99,,2013-01-07 08:32:00,
2013-01-07 03:43:00,30.0,26.0,30.33,East,84,3.0,-999.0,86,-99.99,,,-99.99,,2013-01-07 08:43:00,
2013-01-07 03:53:00,31.0,25.0,30.33,SW,231,1.0,-999.0,79,-99.99,,,-99.99,,2013-01-07 08:53:00,
2013-01-07 04:02:00,31.0,25.0,30.33,SW,231,1.0,-999.0,79,-99.99,,,-99.99,,2013-01-07 09:02:00,
2013-01-07 04:12:00,31.0,25.0,30.33,SW,231,1.0,-999.0,79,-99.99,,,-99.99,,2013-01-07 09:12:00,
2013-01-07 04:22:00,30.0,26.0,30.34,ENE,71,4.0,-999.0,84,-99.99,,,-99.99,,2013-01-07 09:22:00,
2013-01-07 04:32:00,30.0,26.0,30.34,ENE,71,4.0,-999.0,84,-99.99,,,-99.99,,2013-01-07 09:32:00,
2013-01-07 04:42:00,30.0,26.0,30.34,ENE,71,4.0,-999.0,84,-99.99,,,-99.99,,2013-01-07 09:42:00,
2013-01-07 04:53:00,29.0,25.0,30.34,ENE,69,4.0,-999.0,86,-99.99,,,-99.99,,2013-01-07 09:53:00,
2013-01-07 05:02:00,29.0,25.0,30.34,ENE,69,4.0,-999.0,86,-99.99,,,-99.99,,2013-01-07 10:02:00,
2013-01-07 05:12:00,31.0,25.0,30.34,NNE,15,4.0,-999.0,77,-99.99,,,-99.99,,2013-01-07 10:12:00,
2013-01-07 05:22:00,31.0,25.0,30.34,NNE,15,4.0,-999.0,77,-99.99,,,-99.99,,2013-01-07 10:22:00,
2013-01-07 05:32:00,31.0,25.0,30.34,NNE,15,4.0,-999.0,77,-99.99,,,-99.99,,2013-01-07 10:32:00,
2013-01-07 05:43:00,31.0,25.0,30.34,NNE,15,4.0,-999.0,77,-99.99,,,-99.99,,2013-01-07 10:43:00,
2013-01-07 05:52:00,34.0,19.0,30.34,ENE,58,3.0,-999.0,54,-99.99,,,-99.99,,2013-01-07 10:52:00,
2013-01-07 06:02:00,34.0,19.0,30.34,ENE,58,3.0,-999.0,54,-99.99,,,-99.99,,2013-01-07 11:02:00,
2013-01-07 06:12:00,34.0,19.0,30.34,ENE,58,3.0,-999.0,54,-99.99,,,-99.99,,2013-01-07 11:12:00,
2013-01-07 06:23:00,35.0,19.0,30.34,ENE,61,2.0,-999.0,52,-99.99,,,-99.99,,2013-01-07 11:23:00,
2013-01-07 06:33:00,35.0,19.0,30.34,ENE,61,2.0,-999.0,52,-99.99,,,-99.99,,2013-01-07 11:33:00,
2013-01-07 06:43:00,35.0,19.0,30.34,ENE,61,2.0,-999.0,52,-99.99,,,-99.99,,2013-01-07 11:43:00,
2013-01-07 06:53:00,34.0,20.0,30.34,SSE,166,3.0,-999.0,56,-99.99,,,-99.99,,2013-01-07 11:53:00,
2013-01-07 07:03:00,34.0,20.0,30.34,SSE,166,3.0,-999.0,56,-99.99,,,-99.99,,2013-01-07 12:03:00,
2013-01-07 07:12:00,35.0,18.0,30.35,SSE,149,2.0,-999.0,50,-99.99,,,-99.99,,2013-01-07 12:12:00,
2013-01-07 07:22:00,35.0,18.0,30.35,SSE,149,2.0,-999.0,50,-99.99,,,-99.99,,2013-01-07 12:22:00,
2013-01-07 07:33:00,35.0,18.0,30.35,SSE,149,2.0,-999.0,50,-99.99,,,-99.99,,2013-01-07 12:33:00,
2013-01-07 07:43:00,35.0,18.0,30.35,SSE,149,2.0,-999.0,50,-99.99,,,-99.99,,2013-01-07 12:43:00,
2013-01-07 07:53:00,36.0,16.0,30.36,East,80,3.0,-999.0,44,-99.99,,,-99.99,,2013-01-07 12:53:00,
2013-01-07 08:03:00,36.0,16.0,30.36,East,80,3.0,-999.0,44,-99.99,,,-99.99,,2013-01-07 13:03:00,
2013-01-07 08:12:00,36.0,16.0,30.36,East,80,3.0,-999.0,44,-99.99,,,-99.99,,2013-01-07 13:12:00,
2013-01-07 08:23:00,37.0,16.0,30.38,ENE,68,2.0,-999.0,41,-99.99,,,-99.99,,2013-01-07 13:23:00,
2013-01-07 08:33:00,37.0,16.0,30.38,ENE,68,2.0,-999.0,41,-99.99,,,-99.99,,2013-01-07 13:33:00,
2013-01-07 08:43:00,37.0,16.0,30.38,ENE,68,2.0,-999.0,41,-99.99,,,-99.99,,2013-01-07 13:43:00,
2013-01-07 08:53:00,39.0,16.0,30.39,ENE,76,2.0,-999.0,39,-99.99,,,-99.99,,2013-01-07 13:53:00,
2013-01-07 09:03:00,39.0,16.0,30.39,ENE,76,2.0,-999.0,39,-99.99,,,-99.99,,2013-01-07 14:03:00,
2013-01-07 09:13:00,39.0,16.0,30.39,ENE,76,2.0,-999.0,39,-99.99,,,-99.99,,2013-01-07 14:13:00,
2013-01-07 09:23:00,41.0,17.0,30.40,East,89,3.0,-999.0,38,-99.99,,,-99.99,,2013-01-07 14:23:00,
2013-01-07 09:33:00,41.0,17.0,30.40,East,89,3.0,-999.0,38,-99.99,,,-99.99,,2013-01-07 14:33:00,
2013-01-07 09:43:00,41.0,17.0,30.40,East,89,3.0,-999.0,38,-99.99,,,-99.99,,2013-01-07 14:43:00,
2013-01-07 09:53:00,42.0,18.0,30.41,ENE,58,3.0,-999.0,37,-99.99,,,-99.99,,2013-01-07 14:53:00,
2013-01-07 10:03:00,42.0,18.0,30.41,ENE,58,3.0,-999.0,37,-99.99,,,-99.99,,2013-01-07 15:03:00,
2013-01-07 10:12:00,42.0,18.0,30.41,ENE,58,3.0,-999.0,37,-99.99,,,-99.99,,2013-01-07 15:12:00,
2013-01-07 10:22:00,43.0,20.0,30.42,NE,50,4.0,-999.0,40,-99.99,,,-99.99,,2013-01-07 15:22:00,
2013-01-07 10:33:00,43.0,20.0,30.42,NE,50,4.0,-999.0,40,-99.99,,,-99.99,,2013-01-07 15:33:00,
2013-01-07 10:43:00,43.0,20.0,30.42,NE,50,4.0,-999.0,40,-99.99,,,-99.99,,2013-01-07 15:43:00,
2013-01-07 10:53:00,42.0,21.0,30.43,East,92,7.0,-999.0,43,-99.99,,,-99.99,,2013-01-07 15:53:00,
2013-01-07 11:02:00,42.0,21.0,30.43,East,92,7.0,-999.0,43,-99.99,,,-99.99,,2013-01-07 16:02:00,
2013-01-07 11:12:00,42.0,21.0,30.43,East,92,7.0,-999.0,43,-99.99,,,-99.99,,2013-01-07 16:12:00,
2013-01-07 11:22:00,42.0,24.0,30.44,SE,131,5.0,-999.0,49,-99.99,,,-99.99,,2013-01-07 16:22:00,
2013-01-07 11:33:00,42.0,24.0,30.44,SE,131,5.0,-999.0,49,-99.99,,,-99.99,,2013-01-07 16:33:00,
2013-01-07 11:43:00,42.0,24.0,30.44,SE,131,5.0,-999.0,49,-99.99,,,-99.99,,2013-01-07 16:43:00,
2013-01-07 11:53:00,42.0,26.0,30.43,NE,50,4.0,-999.0,52,-99.99,,,-99.99,,2013-01-07 16:53:00,
2013-01-07 12:03:00,42.0,26.0,30.43,NE,50,4.0,-999.0,52,-99.99,,,-99.99,,2013-01-07 17:03:00,
2013-01-07 12:12:00,42.0,26.0,30.43,NE,50,4.0,-999.0,52,-99.99,,,-99.99,,2013-01-07 17:12:00,
2013-01-07 12:23:00,43.0,27.0,30.42,SSE,149,4.0,-999.0,53,-99.99,,,-99.99,,2013-01-07 17:23:00,
2013-01-07 12:33:00,43.0,27.0,30.42,SSE,149,4.0,-999.0,53,-99.99,,,-99.99,,2013-01-07 17:33:00,
2013-01-07 12:43:00,43.0,27.0,30.42,SSE,149,4.0,-999.0,53,-99.99,,,-99.99,,2013-01-07 17:43:00,
2013-01-07 12:53:00,46.0,28.0,30.40,ESE,115,4.0,-999.0,50,-99.99,,,-99.99,,2013-01-07 17:53:00,
2013-01-07 13:03:00,46.0,28.0,30.40,ESE,115,4.0,-999.0,50,-99.99,,,-99.99,,2013-01-07 18:03:00,
2013-01-07 13:13:00,46.0,28.0,30.40,ESE,115,4.0,-999.0,50,-99.99,,,-99.99,,2013-01-07 18:13:00,
2013-01-07 13:23:00,47.0,28.0,30.38,SSE,164,4.0,-999.0,48,-99.99,,,-99.99,,2013-01-07 18:23:00,
2013-01-07 13:33:00,47.0,28.0,30.38,SSE,164,4.0,-999.0,48,-99.99,,,-99.99,,2013-01-07 18:33:00,
2013-01-07 13:43:00,47.0,28.0,30.38,SSE,164,4.0,-999.0,48,-99.99,,,-99.99,,2013-01-07 18:43:00,
2013-01-07 13:53:00,49.0,29.0,30.37,SSW,193,4.0,-999.0,46,-99.99,,,-99.99,,2013-01-07 18:53:00,
2013-01-07 14:03:00,49.0,29.0,30.37,SSW,193,4.0,-999.0,46,-99.99,,,-99.99,,2013-01-07 19:03:00,
2013-01-07 14:12:00,49.0,29.0,30.37,SSW,193,4.0,-999.0,46,-99.99,,,-99.99,,2013-01-07 19:12:00,
2013-01-07 14:23:00,50.0,28.0,30.37,SW,218,3.0,-999.0,42,-99.99,,,-99.99,,2013-01-07 19:23:00,
2013-01-07 14:33:00,50.0,28.0,30.37,SW,218,3.0,-999.0,42,-99.99,,,-99.99,,2013-01-07 19:33:00,
2013-01-07 14:43:00,50.0,28.0,30.37,SW,218,3.0,-999.0,42,-99.99,,,-99.99,,2013-01-07 19:43:00,
2013-01-07 14:53:00,51.0,27.0,30.37,ENE,66,4.0,-999.0,39,-99.99,,,-99.99,,2013-01-07 19:53:00,
2013-01-07 15:03:00,51.0,27.0,30.37,ENE,66,4.0,-999.0,39,-99.99,,,-99.99,,2013-01-07 20:03:00,
2013-01-07 15:13:00,51.0,27.0,30.37,ENE,66,4.0,-999.0,39,-99.99,,,-99.99,,2013-01-07 20:13:00,
2013-01-07 15:23:00,51.0,26.0,30.37,ENE,60,4.0,-999.0,37,-99.99,,,-99.99,,2013-01-07 20:23:00,
2013-01-07 15:33:00,51.0,26.0,30.37,ENE,60,4.0,-999.0,37,-99.99,,,-99.99,,2013-01-07 20:33:00,
2013-01-07 15:43:00,51.0,26.0,30.37,ENE,60,4.0,-999.0,37,-99.99,,,-99.99,,2013-01-07 20:43:00,
2013-01-07 15:53:00,50.0,26.0,30.37,ESE,120,3.0,-999.0,39,-99.99,,,-99.99,,2013-01-07 20:53:00,
2013-01-07 16:03:00,50.0,26.0,30.37,ESE,120,3.0,-999.0,39,-99.99,,,-99.99,,2013-01-07 21:03:00,
2013-01-07 16:12:00,50.0,26.0,30.37,ESE,120,3.0,-999.0,39,-99.99,,,-99.99,,2013-01-07 21:12:00,
2013-01-07 16:23:00,49.0,26.0,30.38,SSE,157,3.0,-999.0,40,-99.99,,,-99.99,,2013-01-07 21:23:00,
2013-01-07 16:33:00,49.0,26.0,30.38,SSE,157,3.0,-999.0,40,-99.99,,,-99.99,,2013-01-07 21:33:00,
2013-01-07 16:43:00,49.0,26.0,30.38,SSE,157,3.0,-999.0,40,-99.99,,,-99.99,,2013-01-07 21:43:00,
2013-01-07 16:53:00,48.0,26.0,30.38,SSE,148,2.0,-999.0,42,-99.99,,,-99.99,,2013-01-07 21:53:00,
2013-01-07 17:03:00,48.0,26.0,30.38,SSE,148,2.0,-999.0,42,-99.99,,,-99.99,,2013-01-07 22:03:00,
2013-01-07 17:12:00,48.0,26.0,30.38,SSE,148,2.0,-999.0,42,-99.99,,,-99.99,,2013-01-07 22:12:00,
2013-01-07 17:23:00,48.0,27.0,30.39,SSE,163,2.0,-999.0,43,-99.99,,,-99.99,,2013-01-07 22:23:00,
2013-01-07 17:33:00,48.0,27.0,30.39,SSE,163,2.0,-999.0,43,-99.99,,,-99.99,,2013-01-07 22:33:00,
2013-01-07 17:43:00,48.0,27.0,30.39,SSE,163,2.0,-999.0,43,-99.99,,,-99.99,,2013-01-07 22:43:00,
2013-01-07 17:53:00,45.0,25.0,30.39,East,90,1.0,-999.0,46,-99.99,,,-99.99,,2013-01-07 22:53:00,
2013-01-07 18:02:00,45.0,25.0,30.39,East,90,1.0,-999.0,46,-99.99,,,-99.99,,2013-01-07 23:02:00,
2013-01-07 18:12:00,45.0,25.0,30.39,East,90,1.0,-999.0,46,-99.99,,,-99.99,,2013-01-07 23:12:00,
2013-01-07 18:23:00,42.0,26.0,30.39,East,86,1.0,-999.0,53,-99.99,,,-99.99,,2013-01-07 23:23:00,
2013-01-07 18:33:00,42.0,26.0,30.39,East,86,1.0,-999.0,53,-99.99,,,-99.99,,2013-01-07 23:33:00,
2013-01-07 18:43:00,42.0,26.0,30.39,East,86,1.0,-999.0,53,-99.99,,,-99.99,,2013-01-07 23:43:00,
2013-01-07 18:53:00,41.0,28.0,30.38,East,101,3.0,-999.0,59,-99.99,,,-99.99,,2013-01-07 23:53:00,
2013-01-07 19:03:00,41.0,28.0,30.38,East,101,3.0,-999.0,59,-99.99,,,-99.99,,2013-01-08 00:03:00,
2013-01-07 19:12:00,41.0,28.0,30.38,East,101,3.0,-999.0,59,-99.99,,,-99.99,,2013-01-08 00:12:00,
2013-01-07 19:22:00,39.0,27.0,30.39,North,8,2.0,-999.0,62,-99.99,,,-99.99,,2013-01-08 00:22:00,
2013-01-07 19:33:00,39.0,27.0,30.39,North,8,2.0,-999.0,62,-99.99,,,-99.99,,2013-01-08 00:33:00,
2013-01-07 19:43:00,39.0,27.0,30.39,North,8,2.0,-999.0,62,-99.99,,,-99.99,,2013-01-08 00:43:00,
2013-01-07 19:53:00,39.0,27.0,30.39,East,85,4.0,-999.0,63,-99.99,,,-99.99,,2013-01-08 00:53:00,
2013-01-07 20:03:00,39.0,27.0,30.39,East,85,4.0,-999.0,63,-99.99,,,-99.99,,2013-01-08 01:03:00,
2013-01-07 20:12:00,39.0,27.0,30.39,East,85,4.0,-999.0,63,-99.99,,,-99.99,,2013-01-08 01:12:00,
2013-01-07 20:22:00,39.0,28.0,30.40,South,173,4.0,-999.0,64,-99.99,,,-99.99,,2013-01-08 01:22:00,
2013-01-07 20:33:00,39.0,28.0,30.40,South,173,4.0,-999.0,64,-99.99,,,-99.99,,2013-01-08 01:33:00,
2013-01-07 20:42:00,39.0,28.0,30.40,South,173,4.0,-999.0,64,-99.99,,,-99.99,,2013-01-08 01:42:00,
2013-01-07 20:52:00,38.0,28.0,30.37,SSE,161,5.0,-999.0,66,-99.99,,,-99.99,,2013-01-08 01:52:00,
2013-01-07 21:02:00,38.0,28.0,30.37,SSE,161,5.0,-999.0,66,-99.99,,,-99.99,,2013-01-08 02:02:00,
2013-01-07 21:12:00,38.0,28.0,30.37,SSE,161,5.0,-999.0,66,-99.99,,,-99.99,,2013-01-08 02:12:00,
2013-01-07 21:22:00,38.0,28.0,30.37,East,101,7.0,-999.0,66,-99.99,,,-99.99,,2013-01-08 02:22:00,
2013-01-07 21:33:00,38.0,28.0,30.37,East,101,7.0,-999.0,66,-99.99,,,-99.99,,2013-01-08 02:33:00,
2013-01-07 21:43:00,38.0,28.0,30.37,East,101,7.0,-999.0,66,-99.99,,,-99.99,,2013-01-08 02:43:00,
2013-01-07 21:53:00,38.0,28.0,30.36,SSE,168,8.0,-999.0,68,-99.99,,,-99.99,,2013-01-08 02:53:00,
2013-01-07 22:03:00,38.0,28.0,30.36,SSE,168,8.0,-999.0,68,-99.99,,,-99.99,,2013-01-08 03:03:00,
2013-01-07 22:12:00,38.0,28.0,30.36,SSE,168,8.0,-999.0,68,-99.99,,,-99.99,,2013-01-08 03:12:00,
2013-01-07 22:22:00,38.0,29.0,30.37,ENE,77,9.0,-999.0,69,-99.99,,,-99.99,,2013-01-08 03:22:00,
2013-01-07 22:32:00,38.0,29.0,30.37,ENE,77,9.0,-999.0,69,-99.99,,,-99.99,,2013-01-08 03:32:00,
2013-01-07 22:43:00,38.0,29.0,30.37,ENE,77,9.0,-999.0,69,-99.99,,,-99.99,,2013-01-08 03:43:00,
2013-01-07 22:53:00,37.0,28.0,30.36,East,81,9.0,-999.0,69,-99.99,,,-99.99,,2013-01-08 03:53:00,
2013-01-07 23:02:00,37.0,28.0,30.36,East,81,9.0,-999.0,69,-99.99,,,-99.99,,2013-01-08 04:02:00,
2013-01-07 23:12:00,37.0,28.0,30.36,East,81,9.0,-999.0,69,-99.99,,,-99.99,,2013-01-08 04:12:00,
2013-01-07 23:22:00,37.0,28.0,30.36,ESE,106,9.0,-999.0,70,-99.99,,,-99.99,,2013-01-08 04:22:00,
2013-01-07 23:32:00,37.0,28.0,30.36,ESE,106,9.0,-999.0,70,-99.99,,,-99.99,,2013-01-08 04:32:00,
2013-01-07 23:43:00,37.0,28.0,30.36,ESE,106,9.0,-999.0,70,-99.99,,,-99.99,,2013-01-08 04:43:00,
2013-01-07 23:52:00,36.0,28.0,30.36,East,88,9.0,-999.0,72,-99.99,,,-99.99,,2013-01-08 04:52:00,